Location: McCall
(45.0000°N, 116.0000°W)
Time: 02:56:48
(UTC-07:00)

Saudisat 1A - Visible Passes

Search period start: 11 December 2016 00:00
Search period end: 21 December 2016 00:00
Orbit: 566 x 627 km, 64.6° (Epoch: 10 December)

Date Brightness Start Highest point End Pass type
(mag) Time Alt. Az. Time Alt. Az. Time Alt. Az.
11 Dec 8.5 18:03:36 10° NNW 18:07:52 40° NE 18:12:03 10° ESE visible
11 Dec 10.0 19:43:23 10° WNW 19:47:09 27° WSW 19:50:38 11° S visible
12 Dec 8.0 18:13:34 10° NNW 18:18:04 67° NE 18:22:27 10° SE visible
12 Dec 10.9 19:54:19 10° WNW 19:56:58 16° WSW 19:59:34 10° SSW visible
13 Dec 8.3 18:23:39 10° NW 18:28:09 73° WSW 18:32:30 10° SSE visible
14 Dec 9.4 18:33:54 10° NW 18:38:07 41° WSW 18:42:14 10° S visible
15 Dec 10.6 18:44:26 10° WNW 18:48:00 24° WSW 18:51:31 10° SSW visible
16 Dec 11.4 18:55:35 10° W 18:57:48 14° WSW 18:59:59 10° SW visible
17 Dec 11.8 07:24:19 10° SE 07:25:53 12° ESE 07:27:28 10° E visible
18 Dec 11.2 07:32:20 10° SSE 07:35:40 21° ESE 07:39:01 10° ENE visible
18 Dec 10.0 17:34:53 10° NW 17:38:59 36° WSW 17:43:00 10° S visible
19 Dec 10.1 07:41:26 10° S 07:45:31 35° ESE 07:49:40 10° NE visible
19 Dec 11.1 17:45:30 10° WNW 17:48:51 21° WSW 17:52:09 10° SSW visible
20 Dec 11.7 17:56:58 10° W 17:58:37 12° WSW 18:00:15 10° SW visible
